Погода в Уваровке

Россия / Республика Крым     45°26′44″N   34°47′14″E
темп.,
°C
ветер,
м/с
пор.,
м/с
влажн.,
%
обл.,
%
осадки,
мм/ч
давл.,
гПа
погр.,
м
17 мая, вт
вт1700:00+11зюз357583 0.0 101878
03:00+12зюз497031 0.0 1017157
06:00+13зюз4865100 0.0 1017191
09:00+17з4755100 0.0 1017445
12:00+21з684779 0.0 10161513
15:00+22зюз794781 0.0 10152310
18:00+20зюз68566 0.1 1014990
21:00+14юз410769 0.1 1014191
18 мая, ср
ср1800:00+13юз3875100 0.0 1013138
03:00+14з2766100 0.0 1011227
06:00+13ююв41092100 1.3 1008412
09:00+12ююв31094100 5.6 1009604
12:00+13ссз5994100 2.5 1009669
15:00+11ссз71082100 3.3 1012859
18:00+12ссв3573100 0.0 1013428
21:00+10зсз51075100 0.6 1016285
19 мая, чт
чт1900:00+8зсз6118413 0.6 1018403
03:00+7з5119249 1.2 1019304
06:00+7з5109473 0.1 1020306
09:00+12ссз697899 1.5 10211209
12:00+15ссз796698 1.8 10231538
15:00+17ссз685497 2.6 10231793
18:00+16ссз586254 0.3 10241182
21:00+11зсз227437 0.3 102512
20 мая, пт
пт2000:00+12зюз337142 0.0 102640
03:00+11зюз477690 0.0 1026124
06:00+12зюз487592 0.0 1026191
09:00+17з56592 0.0 1026578
12:00+21з554439 0.0 10262179
15:00+21зюз354681 0.0 10241445
18:00+20сз2553100 0.0 1023384
21:00+14зюз497252 0.0 1024154
21 мая, сб
сб2100:00+12зюз4877100 0.0 1023133
03:00+11юз487837 0.0 1021124
06:00+11зюз310793 0.0 1021188
09:00+18юз69545 0.0 1019673
12:00+22зюз67395 0.0 10171248
15:00+23зюз77375 0.0 10161201
18:00+20зюз69515 0.0 1015617
21:00+12зюз41272100 0.0 1014229